Weather History for New Ulm, MN

Change the Weather History Date:

Sunday, June 16, 2013

  Actual Average Record
Temperature  
Mean Temperature 70 °F -  
Max Temperature 84 °F 78 °F 95 °F (1959)
Min Temperature 55 °F 55 °F 42 °F (1961)
Cooling Degree Days 4    
Growing Degree Days 20 (Base 50)    
Moisture  
Dew Point 53 °F    
Average Humidity 61    
Maximum Humidity 94    
Minimum Humidity 29    
Precipitation  
Precipitation 0.00 in - - ()
Sea Level Pressure  
Sea Level Pressure 29.92 in    
Wind  
Wind Speed 7 mph (WNW)    
Max Wind Speed 16 mph    
Max Gust Speed 22 mph    
Visibility 10 miles    
Events      
Averages and records for this station are not official NWS values.
T = Trace of Precipitation, MM = Missing Value Source: NWS Daily Summary

Daily Weather History Graph

Daily Weather History Graph

Search for Another Location

Airport:

Trip Planner

Search our weather history database for the weather conditions in past years. The results will help you decide how hot, cold, wet, or windy it might be!

Date:

Astronomy

Jun. 16, 2013 Rise Set
Actual Time 5:33 AM CDT 9:04 PM CDT
Civil Twilight 4:56 AM CDT 9:41 PM CDT
Nautical Twilight 4:08 AM CDT 10:29 PM CDT
Astronomical Twilight 3:06 AM CDT 11:31 PM CDT
Moon 1:26 PM CDT (6/16) 12:54 AM CDT (6/16)
Length of Visible Light 16h 44m
Length of Day
15h 31m
Waxing Crescent, 50% of the Moon is Illuminated
Jun 16
Waxing Crescent
Jun 16
First Quarter
Jun 23
Full
Jun 29
Last Quarter
Jul 8
New

Hourly Weather History & Observations

Time (CDT) Temp. Heat Index Dew Point Humidity Pressure Visibility Wind Dir Wind Speed Gust Speed Precip Events Conditions
12:12 AM 64.4 °F - 55.4 °F 73% 29.92 in 10.0 mi WNW 6.9 mph - N/A   Clear
12:33 AM 62.6 °F - 55.4 °F 77% 29.92 in 10.0 mi WNW 6.9 mph - N/A   Clear
12:53 AM 62.6 °F - 55.4 °F 77% 29.92 in 10.0 mi WNW 5.8 mph - N/A   Clear
1:13 AM 60.8 °F - 55.4 °F 82% 29.92 in 10.0 mi West 3.5 mph - N/A   Clear
1:33 AM 60.8 °F - 53.6 °F 77% 29.92 in 10.0 mi West 4.6 mph - N/A   Clear
1:53 AM 60.8 °F - 53.6 °F 77% 29.92 in 10.0 mi WSW 4.6 mph - N/A   Clear
2:13 AM 59.0 °F - 53.6 °F 82% 29.91 in 10.0 mi WSW 3.5 mph - N/A   Clear
2:33 AM 59.0 °F - 53.6 °F 82% 29.91 in 10.0 mi Calm Calm - N/A   Clear
2:52 AM 57.2 °F - 53.6 °F 88% 29.92 in 10.0 mi WSW 4.6 mph - N/A   Clear
3:13 AM 57.2 °F - 53.6 °F 88% 29.93 in 10.0 mi West 6.9 mph - N/A   Clear
3:33 AM 57.2 °F - 53.6 °F 88% 29.92 in 10.0 mi West 4.6 mph - N/A   Clear
3:52 AM 57.2 °F - 53.6 °F 88% 29.92 in 10.0 mi West 4.6 mph - N/A   Clear
4:13 AM 57.2 °F - 53.6 °F 88% 29.93 in 10.0 mi West 6.9 mph - N/A   Clear
4:32 AM 55.4 °F - 53.6 °F 94% 29.94 in 10.0 mi West 5.8 mph - N/A   Clear
4:53 AM 55.4 °F - 53.6 °F 94% 29.92 in 10.0 mi WNW 5.8 mph - N/A   Clear
5:13 AM 55.4 °F - 51.8 °F 88% 29.93 in 10.0 mi WNW 5.8 mph - N/A   Clear
5:32 AM 55.4 °F - 51.8 °F 88% 29.94 in 10.0 mi West 4.6 mph - N/A   Clear
5:53 AM 55.4 °F - 51.8 °F 88% 29.94 in 10.0 mi West 3.5 mph - N/A   Clear
6:13 AM 55.4 °F - 51.8 °F 88% 29.95 in 10.0 mi WSW 3.5 mph - N/A   Clear
6:32 AM 55.4 °F - 53.6 °F 94% 29.95 in 10.0 mi WSW 4.6 mph - N/A   Clear
6:53 AM 57.2 °F - 55.4 °F 94% 29.95 in 10.0 mi WSW 3.5 mph - N/A   Clear
7:12 AM 60.8 °F - 55.4 °F 82% 29.95 in 10.0 mi WSW 4.6 mph - N/A   Clear
7:33 AM 62.6 °F - 55.4 °F 77% 29.95 in 10.0 mi West 4.6 mph - N/A   Clear
7:53 AM 62.6 °F - 55.4 °F 77% 29.95 in 10.0 mi WNW 5.8 mph - N/A   Clear
8:12 AM 64.4 °F - 55.4 °F 73% 29.95 in 10.0 mi WNW 5.8 mph - N/A   Clear
8:33 AM 66.2 °F - 55.4 °F 68% 29.95 in 10.0 mi West 5.8 mph - N/A   Clear
8:53 AM 68.0 °F - 55.4 °F 64% 29.95 in 10.0 mi West 5.8 mph - N/A   Clear
9:12 AM 69.8 °F - 55.4 °F 60% 29.96 in 10.0 mi West 6.9 mph - N/A   Clear
9:33 AM 71.6 °F - 57.2 °F 60% 29.96 in 10.0 mi WNW 5.8 mph - N/A   Clear
9:53 AM 73.4 °F - 55.4 °F 53% 29.96 in 10.0 mi West 6.9 mph - N/A   Clear
10:12 AM 73.4 °F - 57.2 °F 57% 29.96 in 10.0 mi West 8.1 mph - N/A   Clear
10:33 AM 75.2 °F - 55.4 °F 50% 29.95 in 10.0 mi WNW 5.8 mph - N/A   Clear
10:53 AM 77.0 °F - 55.4 °F 47% 29.95 in 10.0 mi WNW 6.9 mph - N/A   Clear
11:12 AM 77.0 °F - 53.6 °F 44% 29.95 in 10.0 mi WNW 5.8 mph - N/A   Clear
11:33 AM 78.8 °F - 53.6 °F 42% 29.95 in 10.0 mi NW 9.2 mph - N/A   Clear
11:53 AM 78.8 °F - 51.8 °F 39% 29.94 in 10.0 mi NNW 12.7 mph 18.4 mph N/A   Clear
12:12 PM 80.6 °F 80.3 °F 53.6 °F 39% 29.94 in 10.0 mi NW 11.5 mph - N/A   Clear
12:33 PM 80.6 °F - 51.8 °F 37% 29.93 in 10.0 mi NW 4.6 mph - N/A   Clear
12:53 PM 80.6 °F - 51.8 °F 37% 29.94 in 10.0 mi WNW 11.5 mph 17.3 mph N/A   Clear
1:12 PM 82.4 °F - 50.0 °F 32% 29.93 in 10.0 mi NW 13.8 mph 18.4 mph N/A   Clear
1:33 PM 82.4 °F - 48.2 °F 30% 29.93 in 10.0 mi NW 13.8 mph 17.3 mph N/A   Clear
1:53 PM 82.4 °F - 51.8 °F 35% 29.93 in 10.0 mi NW 15.0 mph 19.6 mph N/A   Clear
2:12 PM 82.4 °F - 50.0 °F 32% 29.94 in 10.0 mi NW 8.1 mph 16.1 mph N/A   Clear
2:33 PM 82.4 °F - 51.8 °F 35% 29.94 in 10.0 mi NW 8.1 mph - N/A   Clear
2:53 PM 84.2 °F - 51.8 °F 33% 29.93 in 10.0 mi NNW 10.4 mph 18.4 mph N/A   Clear
3:12 PM 84.2 °F - 51.8 °F 33% 29.92 in 10.0 mi NW 13.8 mph 19.6 mph N/A   Clear
3:33 PM 84.2 °F - 50.0 °F 30% 29.91 in 10.0 mi NW 9.2 mph 19.6 mph N/A   Clear
3:53 PM 84.2 °F - 51.8 °F 33% 29.91 in 10.0 mi NNW 11.5 mph 16.1 mph N/A   Clear
4:12 PM 84.2 °F - 51.8 °F 33% 29.91 in 10.0 mi NW 12.7 mph - N/A   Clear
4:33 PM 82.4 °F - 51.8 °F 35% 29.90 in 10.0 mi WNW 11.5 mph - N/A   Clear
4:53 PM 84.2 °F - 48.2 °F 29% 29.90 in 10.0 mi West 12.7 mph 17.3 mph N/A   Clear
5:13 PM 82.4 °F - 50.0 °F 32% 29.90 in 10.0 mi West 13.8 mph - N/A   Clear
5:33 PM 82.4 °F - 48.2 °F 30% 29.89 in 10.0 mi West 16.1 mph 20.7 mph N/A   Clear
5:53 PM - - - N/A% 29.88 in 10.0 mi West 16.1 mph 21.9 mph N/A   Clear
6:13 PM - - - N/A% 29.88 in 10.0 mi West 15.0 mph - N/A   Clear
6:33 PM - - - N/A% 29.88 in 10.0 mi West 10.4 mph - N/A   Clear
6:53 PM - - - N/A% 29.88 in 10.0 mi West 11.5 mph - N/A   Clear
7:13 PM - - - N/A% 29.87 in 10.0 mi West 11.5 mph - N/A   Clear
7:33 PM - - - N/A% 29.87 in 10.0 mi West 10.4 mph - N/A   Clear
7:53 PM - - - N/A% 29.88 in 10.0 mi NNE 6.9 mph - N/A   Clear
8:13 PM 75.2 °F - 53.6 °F 47% 29.88 in 10.0 mi ENE 4.6 mph - N/A   Clear
8:33 PM 71.6 °F - 55.4 °F 57% 29.90 in 10.0 mi ESE 3.5 mph - N/A   Clear
8:52 PM 71.6 °F - 55.4 °F 57% 29.90 in 10.0 mi ESE 6.9 mph - N/A   Clear
9:13 PM 73.4 °F - 53.6 °F 50% 29.90 in 10.0 mi Calm Calm - N/A   Clear
9:33 PM 73.4 °F - 53.6 °F 50% 29.91 in 10.0 mi Calm Calm - N/A   Clear
9:52 PM 71.6 °F - 53.6 °F 53% 29.91 in 10.0 mi Calm Calm - N/A   Clear
10:13 PM 71.6 °F - 55.4 °F 57% 29.90 in 10.0 mi WSW 5.8 mph - N/A   Clear
10:33 PM 69.8 °F - 55.4 °F 60% 29.91 in 10.0 mi WSW 5.8 mph - N/A   Clear
10:52 PM 68.0 °F - 55.4 °F 64% 29.90 in 10.0 mi WSW 6.9 mph - N/A   Clear
11:13 PM 68.0 °F - 55.4 °F 64% 29.90 in 10.0 mi WSW 6.9 mph - N/A   Clear
11:33 PM 68.0 °F - 55.4 °F 64% 29.91 in 10.0 mi WSW 8.1 mph - N/A   Clear
11:52 PM 68.0 °F - 53.6 °F 60% 29.91 in 10.0 mi WSW 6.9 mph - N/A   Clear